| time (UTC) | temp F | wind direction | speed MPH | gust MPH | rain 1hr in | rain 24hr in | rain mn in | humidity % | barometer mb |
| 20260507232351 | 66 | 48 | 1.0 | 2.0 | 0.00 | 0.01 | 0.01 | 68 | 1056.6 |
| 20260507231849 | 67 | 130 | 3.0 | 4.0 | 0.00 | 0.01 | 0.01 | 68 | 1056.6 |
| 20260507231345 | 67 | 56 | 0.0 | 0.0 | 0.00 | 0.01 | 0.01 | 69 | 1056.5 |
| 20260507230841 | 66 | 71 | 1.0 | 2.0 | 0.00 | 0.01 | 0.01 | 70 | 1056.5 |
| 20260507230338 | 66 | 26 | 3.0 | 6.0 | 0.00 | 0.01 | 0.01 | 70 | 1056.6 |
| 20260507225838 | 66 | 1 | 2.0 | 3.0 | 0.00 | 0.01 | 0.01 | 69 | 1056.7 |
| 20260507225334 | 66 | 43 | 1.0 | 3.0 | 0.00 | 0.01 | 0.01 | 69 | 1056.8 |
| 20260507224831 | 66 | 50 | 2.0 | 3.0 | 0.00 | 0.01 | 0.01 | 69 | 1056.5 |
| 20260507224328 | 66 | 57 | 1.0 | 6.0 | 0.00 | 0.01 | 0.01 | 68 | 1056.7 |
| 20260507223824 | 66 | 22 | 2.0 | 4.0 | 0.00 | 0.01 | 0.01 | 69 | 1057.3 |
| 20260507223320 | 66 | 15 | 4.0 | 6.0 | 0.00 | 0.01 | 0.01 | 69 | 1057.3 |
| 20260507222817 | 66 | 24 | 3.0 | 4.0 | 0.00 | 0.01 | 0.01 | 68 | 1057.3 |
| 20260507222314 | 66 | 22 | 1.0 | 3.0 | 0.00 | 0.01 | 0.01 | 69 | 1057.3 |
| 20260507221811 | 66 | 4 | 1.0 | 2.0 | 0.00 | 0.01 | 0.01 | 70 | 1057.5 |
| 20260507221307 | 66 | 25 | 2.0 | 4.0 | 0.00 | 0.01 | 0.01 | 69 | 1057.5 |
| 20260507220803 | 66 | 11 | 2.0 | 3.0 | 0.00 | 0.01 | 0.01 | 69 | 1057.4 |
| 20260507220302 | 66 | 30 | 1.0 | 6.0 | 0.00 | 0.01 | 0.01 | 70 | 1057.4 |
| 20260507215757 | 66 | 27 | 2.0 | 2.0 | 0.00 | 0.01 | 0.01 | 70 | 1057.4 |
| 20260507215255 | 66 | 18 | 1.0 | 3.0 | 0.00 | 0.01 | 0.01 | 69 | 1057.5 |
| 20260507214752 | 66 | 36 | 2.0 | 6.0 | 0.00 | 0.01 | 0.01 | 67 | 1057.6 |
| 20260507214249 | 65 | 22 | 2.0 | 4.0 | 0.00 | 0.01 | 0.01 | 68 | 1057.4 |
| 20260507213744 | 65 | 47 | 3.0 | 7.0 | 0.00 | 0.01 | 0.01 | 66 | 1057.4 |
| 20260507213242 | 65 | 12 | 2.0 | 8.0 | 0.00 | 0.01 | 0.01 | 67 | 1057.6 |
| 20260507212738 | 65 | 20 | 3.0 | 6.0 | 0.00 | 0.01 | 0.01 | 67 | 1057.3 |
| 20260507212229 | 65 | 6 | 3.0 | 6.0 | 0.00 | 0.01 | 0.01 | 68 | 1057.5 |
| 20260507211726 | 65 | 22 | 3.0 | 4.0 | 0.00 | 0.01 | 0.01 | 69 | 1057.3 |
| 20260507211222 | 66 | 10 | 4.0 | 6.0 | 0.00 | 0.01 | 0.01 | 66 | 1057.5 |
| 20260507210719 | 66 | 30 | 3.0 | 7.0 | 0.00 | 0.01 | 0.01 | 66 | 1057.0 |
| 20260507210216 | 67 | 5 | 3.0 | 6.0 | 0.00 | 0.01 | 0.01 | 67 | 1057.4 |
| 20260507205713 | 66 | 31 | 3.0 | 9.0 | 0.00 | 0.01 | 0.01 | 68 | 1057.6 |
| 20260507205209 | 66 | 28 | 2.0 | 8.0 | 0.00 | 0.01 | 0.01 | 69 | 1057.6 |
| 20260507204705 | 66 | 21 | 4.0 | 6.0 | 0.00 | 0.01 | 0.01 | 70 | 1057.2 |
| 20260507204204 | 65 | 37 | 4.0 | 4.0 | 0.00 | 0.01 | 0.01 | 69 | 1057.2 |
| 20260507203701 | 65 | 40 | 6.0 | 9.0 | 0.00 | 0.01 | 0.01 | 69 | 1057.7 |
| 20260507203158 | 64 | 19 | 4.0 | 7.0 | 0.00 | 0.01 | 0.01 | 69 | 1057.8 |
| 20260507202654 | 65 | 31 | 4.0 | 7.0 | 0.00 | 0.01 | 0.01 | 69 | 1058.1 |
| 20260507202150 | 65 | 17 | 4.0 | 9.0 | 0.00 | 0.01 | 0.01 | 70 | 1058.1 |
| 20260507201645 | 65 | 23 | 1.0 | 3.0 | 0.00 | 0.01 | 0.01 | 69 | 1057.9 |
| 20260507201143 | 64 | 56 | 4.0 | 6.0 | 0.00 | 0.01 | 0.01 | 70 | 1058.2 |
| 20260507200639 | 64 | 26 | 3.0 | 7.0 | 0.00 | 0.01 | 0.01 | 71 | 1058.1 |
| 20260507200135 | 64 | 28 | 4.0 | 8.0 | 0.00 | 0.01 | 0.01 | 70 | 1058.1 |
| 20260507195632 | 64 | 25 | 2.0 | 4.0 | 0.00 | 0.01 | 0.01 | 72 | 1058.5 |
| 20260507195129 | 65 | 26 | 2.0 | 8.0 | 0.00 | 0.01 | 0.01 | 72 | 1058.3 |
| 20260507194626 | 65 | 40 | 2.0 | 7.0 | 0.00 | 0.01 | 0.01 | 72 | 1058.2 |
| 20260507194121 | 66 | 15 | 4.0 | 7.0 | 0.00 | 0.01 | 0.01 | 70 | 1058.6 |
| 20260507193618 | 65 | 29 | 5.0 | 10.0 | 0.00 | 0.01 | 0.01 | 71 | 1058.4 |
| 20260507193115 | 64 | 43 | 4.0 | 8.0 | 0.00 | 0.01 | 0.01 | 71 | 1058.3 |
| 20260507192612 | 64 | 47 | 4.0 | 10.0 | 0.00 | 0.01 | 0.01 | 74 | 1058.3 |
| 20260507192109 | 64 | 66 | 7.0 | 10.0 | 0.00 | 0.01 | 0.01 | 74 | 1058.5 |
| 20260507191604 | 64 | 23 | 3.0 | 8.0 | 0.00 | 0.01 | 0.01 | 74 | 1058.9 |
| 20260507191101 | 64 | 21 | 4.0 | 6.0 | 0.00 | 0.01 | 0.01 | 75 | 1058.9 |
| 20260507190558 | 63 | 77 | 2.0 | 8.0 | 0.00 | 0.01 | 0.01 | 78 | 1059.0 |
| 20260507190057 | 63 | 358 | 2.0 | 7.0 | 0.00 | 0.01 | 0.01 | 78 | 1059.0 |
| 20260507185555 | 62 | 45 | 1.0 | 6.0 | 0.00 | 0.01 | 0.01 | 78 | 1058.9 |
| 20260507185051 | 62 | 42 | 3.0 | 7.0 | 0.00 | 0.01 | 0.01 | 78 | 1059.0 |
| 20260507184550 | 62 | 47 | 2.0 | 3.0 | 0.00 | 0.01 | 0.01 | 80 | 1058.7 |
| 20260507184047 | 62 | 87 | 5.0 | 13.0 | 0.00 | 0.01 | 0.01 | 79 | 1058.9 |
| 20260507183543 | 63 | 91 | 4.0 | 7.0 | 0.00 | 0.01 | 0.01 | 77 | 1058.9 |
| 20260507183040 | 62 | 67 | 0.0 | 6.0 | 0.00 | 0.01 | 0.01 | 80 | 1059.1 |
| 20260507182536 | 62 | 29 | 2.0 | 9.0 | 0.00 | 0.01 | 0.01 | 80 | 1058.7 |
| 20260507182032 | 62 | 74 | 1.0 | 6.0 | 0.00 | 0.01 | 0.01 | 81 | 1059.0 |
| 20260507181530 | 62 | 25 | 1.0 | 4.0 | 0.00 | 0.01 | 0.01 | 80 | 1059.3 |
| 20260507181026 | 62 | 13 | 3.0 | 4.0 | 0.00 | 0.01 | 0.01 | 81 | 1059.2 |
| 20260507180522 | 62 | 30 | 2.0 | 4.0 | 0.00 | 0.01 | 0.01 | 81 | 1059.1 |
| 20260507180019 | 61 | 29 | 2.0 | 3.0 | 0.00 | 0.01 | 0.01 | 82 | 1059.3 |
| 20260507175515 | 61 | 30 | 1.0 | 4.0 | 0.00 | 0.01 | 0.01 | 83 | 1059.1 |
| 20260507175013 | 61 | 4 | 3.0 | 7.0 | 0.00 | 0.01 | 0.01 | 84 | 1059.1 |
| 20260507174510 | 61 | 25 | 2.0 | 4.0 | 0.00 | 0.01 | 0.01 | 84 | 1058.9 |
| 20260507174008 | 60 | 31 | 2.0 | 6.0 | 0.00 | 0.01 | 0.01 | 85 | 1059.0 |
| 20260507173504 | 60 | 47 | 1.0 | 8.0 | 0.00 | 0.01 | 0.01 | 86 | 1058.7 |
| 20260507173002 | 60 | 52 | 2.0 | 4.0 | 0.00 | 0.01 | 0.01 | 86 | 1059.1 |
| 20260507172457 | 60 | 74 | 4.0 | 11.0 | 0.00 | 0.01 | 0.01 | 87 | 1058.9 |
| 20260507171954 | 60 | 45 | 7.0 | 10.0 | 0.00 | 0.01 | 0.01 | 87 | 1059.3 |
| 20260507171450 | 59 | 31 | 3.0 | 7.0 | 0.00 | 0.01 | 0.01 | 89 | 1059.5 |
| 20260507170947 | 59 | 29 | 2.0 | 7.0 | 0.00 | 0.01 | 0.01 | 89 | 1059.3 |
| 20260507170444 | 59 | 56 | 1.0 | 4.0 | 0.00 | 0.01 | 0.01 | 90 | 1059.4 |
| 20260507165940 | 59 | 40 | 2.0 | 8.0 | 0.00 | 0.01 | 0.01 | 91 | 1059.4 |
| 20260507165437 | 58 | 86 | 4.0 | 6.0 | 0.00 | 0.01 | 0.01 | 91 | 1059.1 |
| 20260507164932 | 58 | 40 | 2.0 | 7.0 | 0.00 | 0.01 | 0.01 | 93 | 1059.2 |
| 20260507164430 | 57 | 79 | 4.0 | 9.0 | 0.00 | 0.01 | 0.01 | 93 | 1059.1 |
| 20260507163926 | 57 | 27 | 3.0 | 6.0 | 0.00 | 0.01 | 0.01 | 95 | 1059.4 |
| 20260507163424 | 57 | 10 | 1.0 | 3.0 | 0.00 | 0.01 | 0.01 | 95 | 1059.5 |
| 20260507162921 | 57 | 19 | 1.0 | 4.0 | 0.00 | 0.01 | 0.01 | 95 | 1059.6 |
| 20260507162416 | 57 | 36 | 3.0 | 7.0 | 0.00 | 0.01 | 0.01 | 96 | 1059.3 |
| 20260507161914 | 56 | 19 | 2.0 | 4.0 | 0.00 | 0.01 | 0.01 | 96 | 1059.3 |
| 20260507161409 | 56 | 24 | 3.0 | 8.0 | 0.05 | 0.01 | 0.01 | 96 | 1059.8 |
| 20260507160906 | 56 | 33 | 5.0 | 10.0 | 0.05 | 0.01 | 0.01 | 96 | 1059.7 |
| 20260507160402 | 57 | 23 | 2.0 | 6.0 | 0.00 | 0.00 | 0.00 | 95 | 1060.0 |
| 20260507155858 | 57 | 337 | 4.0 | 9.0 | 0.00 | 0.00 | 0.00 | 92 | 1060.3 |
| 20260507155354 | 57 | 11 | 4.0 | 9.0 | 0.00 | 0.00 | 0.00 | 92 | 1060.6 |
| 20260507154851 | 57 | 11 | 6.0 | 13.0 | 0.00 | 0.00 | 0.00 | 91 | 1061.0 |
| 20260507154348 | 57 | 0 | 2.0 | 6.0 | 0.00 | 0.00 | 0.00 | 91 | 1060.1 |
| 20260507153846 | 57 | 38 | 2.0 | 7.0 | 0.00 | 0.00 | 0.00 | 91 | 1059.5 |
| 20260507153342 | 57 | 23 | 5.0 | 7.0 | 0.00 | 0.00 | 0.00 | 91 | 1059.8 |
| 20260507152838 | 57 | 24 | 1.0 | 4.0 | 0.00 | 0.00 | 0.00 | 92 | 1059.6 |
| 20260507152334 | 57 | 27 | 2.0 | 9.0 | 0.00 | 0.00 | 0.00 | 92 | 1059.6 |
| 20260507151830 | 57 | 23 | 3.0 | 4.0 | 0.00 | 0.00 | 0.00 | 92 | 1059.8 |
| 20260507151321 | 57 | 10 | 3.0 | 9.0 | 0.00 | 0.00 | 0.00 | 92 | 1059.5 |
| 20260507150819 | 57 | 21 | 2.0 | 3.0 | 0.00 | 0.00 | 0.00 | 93 | 1059.7 |
| 20260507150315 | 57 | 19 | 6.0 | 9.0 | 0.00 | 0.00 | 0.00 | 93 | 1059.8 |
| 20260507145811 | 57 | 2 | 6.0 | 10.0 | 0.00 | 0.00 | 0.00 | 93 | 1059.7 |
| 20260507145308 | 56 | 20 | 3.0 | 6.0 | 0.00 | 0.00 | 0.00 | 94 | 1059.7 |
| 20260507144805 | 56 | 10 | 5.0 | 7.0 | 0.00 | 0.00 | 0.00 | 94 | 1060.4 |
| 20260507144302 | 56 | 7 | 2.0 | 9.0 | 0.00 | 0.00 | 0.00 | 94 | 1060.4 |
| 20260507143758 | 56 | 15 | 2.0 | 8.0 | 0.00 | 0.00 | 0.00 | 94 | 1060.3 |
| 20260507143256 | 56 | 22 | 2.0 | 4.0 | 0.00 | 0.00 | 0.00 | 94 | 1060.4 |
| 20260507142752 | 56 | 26 | 2.0 | 2.0 | 0.00 | 0.00 | 0.00 | 94 | 1060.6 |
| 20260507142248 | 56 | 24 | 1.0 | 4.0 | 0.00 | 0.00 | 0.00 | 94 | 1060.6 |
| 20260507141745 | 56 | 20 | 1.0 | 3.0 | 0.00 | 0.00 | 0.00 | 94 | 1060.4 |
| 20260507141242 | 56 | 356 | 2.0 | 4.0 | 0.00 | 0.00 | 0.00 | 94 | 1059.9 |
| 20260507140738 | 56 | 16 | 3.0 | 7.0 | 0.00 | 0.00 | 0.00 | 94 | 1060.0 |
| 20260507140236 | 56 | 30 | 3.0 | 7.0 | 0.00 | 0.00 | 0.00 | 95 | 1059.8 |
| 20260507135733 | 56 | 12 | 3.0 | 9.0 | 0.00 | 0.00 | 0.00 | 95 | 1060.0 |
| 20260507135230 | 56 | 18 | 4.0 | 8.0 | 0.00 | 0.00 | 0.00 | 94 | 1060.0 |
| 20260507134726 | 56 | 350 | 4.0 | 7.0 | 0.00 | 0.00 | 0.00 | 94 | 1060.1 |
| 20260507134222 | 56 | 18 | 2.0 | 4.0 | 0.00 | 0.00 | 0.00 | 94 | 1059.9 |
| 20260507133719 | 56 | 23 | 2.0 | 4.0 | 0.00 | 0.00 | 0.00 | 95 | 1059.7 |
| 20260507133216 | 56 | 35 | 3.0 | 9.0 | 0.00 | 0.00 | 0.00 | 95 | 1059.4 |
| 20260507132713 | 56 | 25 | 3.0 | 7.0 | 0.00 | 0.00 | 0.00 | 95 | 1059.1 |
| 20260507132210 | 56 | 21 | 1.0 | 7.0 | 0.00 | 0.00 | 0.00 | 95 | 1059.3 |
| 20260507131706 | 56 | 19 | 3.0 | 6.0 | 0.00 | 0.00 | 0.00 | 95 | 1059.1 |
| 20260507131204 | 56 | 9 | 3.0 | 6.0 | 0.00 | 0.00 | 0.00 | 94 | 1059.1 |
| 20260507130700 | 56 | 25 | 2.0 | 7.0 | 0.00 | 0.00 | 0.00 | 94 | 1059.0 |
| 20260507130158 | 56 | 56 | 5.0 | 8.0 | 0.00 | 0.00 | 0.00 | 94 | 1059.2 |
| 20260507125657 | 56 | 30 | 4.0 | 7.0 | 0.00 | 0.00 | 0.00 | 94 | 1059.0 |
| 20260507125154 | 56 | 30 | 3.0 | 6.0 | 0.00 | 0.00 | 0.00 | 94 | 1059.2 |
| 20260507124650 | 56 | 26 | 2.0 | 9.0 | 0.00 | 0.00 | 0.00 | 93 | 1059.5 |
| 20260507124147 | 56 | 25 | 2.0 | 7.0 | 0.00 | 0.00 | 0.00 | 93 | 1059.1 |
| 20260507123646 | 57 | 19 | 3.0 | 6.0 | 0.00 | 0.00 | 0.00 | 92 | 1059.0 |
| 20260507123143 | 57 | 23 | 1.0 | 9.0 | 0.00 | 0.00 | 0.00 | 92 | 1058.8 |
| 20260507122638 | 57 | 16 | 2.0 | 7.0 | 0.00 | 0.00 | 0.00 | 92 | 1058.9 |
| 20260507122134 | 57 | 26 | 3.0 | 7.0 | 0.00 | 0.00 | 0.00 | 92 | 1058.8 |
| 20260507121630 | 57 | 22 | 4.0 | 11.0 | 0.00 | 0.00 | 0.00 | 92 | 1058.6 |
| 20260507121126 | 57 | 11 | 4.0 | 8.0 | 0.00 | 0.00 | 0.00 | 92 | 1058.6 |
| 20260507120622 | 57 | 13 | 4.0 | 6.0 | 0.00 | 0.00 | 0.00 | 92 | 1059.0 |
| 20260507120119 | 57 | 14 | 4.0 | 7.0 | 0.00 | 0.00 | 0.00 | 93 | 1058.7 |
| 20260507115615 | 57 | 6 | 4.0 | 11.0 | 0.00 | 0.00 | 0.00 | 93 | 1058.7 |
| 20260507115111 | 57 | 13 | 4.0 | 6.0 | 0.00 | 0.00 | 0.00 | 93 | 1058.2 |
| 20260507114607 | 57 | 11 | 4.0 | 9.0 | 0.00 | 0.00 | 0.00 | 93 | 1058.2 |
| 20260507114105 | 57 | 19 | 5.0 | 7.0 | 0.00 | 0.00 | 0.00 | 93 | 1058.4 |
| 20260507113602 | 57 | 15 | 1.0 | 4.0 | 0.00 | 0.00 | 0.00 | 93 | 1058.4 |
| 20260507113059 | 57 | 31 | 2.0 | 4.0 | 0.00 | 0.00 | 0.00 | 93 | 1058.4 |
| 20260507112557 | 57 | 21 | 5.0 | 6.0 | 0.00 | 0.00 | 0.00 | 93 | 1058.2 |
| 20260507112053 | 57 | 21 | 2.0 | 3.0 | 0.00 | 0.00 | 0.00 | 93 | 1058.3 |
| 20260507111550 | 57 | 17 | 6.0 | 10.0 | 0.00 | 0.00 | 0.00 | 93 | 1058.1 |
| 20260507111047 | 57 | 23 | 2.0 | 7.0 | 0.00 | 0.00 | 0.00 | 93 | 1058.3 |
| 20260507110543 | 57 | 357 | 2.0 | 4.0 | 0.00 | 0.00 | 0.00 | 93 | 1058.0 |
| 20260507110040 | 57 | 25 | 4.0 | 7.0 | 0.00 | 0.00 | 0.00 | 93 | 1058.0 |
| 20260507105537 | 57 | 24 | 4.0 | 6.0 | 0.00 | 0.00 | 0.00 | 93 | 1057.7 |
| 20260507105033 | 57 | 24 | 2.0 | 8.0 | 0.00 | 0.00 | 0.00 | 93 | 1057.8 |
| 20260507104530 | 57 | 25 | 4.0 | 6.0 | 0.00 | 0.00 | 0.00 | 93 | 1057.7 |
| 20260507104027 | 57 | 18 | 6.0 | 10.0 | 0.00 | 0.00 | 0.00 | 93 | 1058.0 |
| 20260507103523 | 58 | 22 | 4.0 | 11.0 | 0.00 | 0.00 | 0.00 | 93 | 1058.1 |
| 20260507103020 | 58 | 18 | 2.0 | 3.0 | 0.00 | 0.00 | 0.00 | 92 | 1058.2 |
| 20260507102516 | 58 | 7 | 4.0 | 9.0 | 0.00 | 0.00 | 0.00 | 92 | 1058.2 |
| 20260507102012 | 58 | 9 | 3.0 | 7.0 | 0.00 | 0.00 | 0.00 | 92 | 1057.9 |
| 20260507101508 | 58 | 24 | 2.0 | 4.0 | 0.00 | 0.00 | 0.00 | 92 | 1057.6 |
| 20260507101004 | 58 | 25 | 3.0 | 8.0 | 0.00 | 0.00 | 0.00 | 92 | 1057.3 |
| 20260507100502 | 58 | 18 | 2.0 | 6.0 | 0.00 | 0.00 | 0.00 | 92 | 1057.4 |
| 20260507100000 | 58 | 12 | 2.0 | 3.0 | 0.00 | 0.00 | 0.00 | 92 | 1057.7 |
| 20260507095457 | 58 | 24 | 2.0 | 4.0 | 0.00 | 0.00 | 0.00 | 92 | 1057.3 |
| 20260507094948 | 58 | 30 | 3.0 | 8.0 | 0.00 | 0.00 | 0.00 | 91 | 1057.5 |
| 20260507094444 | 58 | 24 | 2.0 | 6.0 | 0.00 | 0.00 | 0.00 | 91 | 1057.4 |
| 20260507093941 | 58 | 4 | 2.0 | 3.0 | 0.00 | 0.00 | 0.00 | 91 | 1057.4 |
| 20260507093439 | 58 | 20 | 1.0 | 2.0 | 0.00 | 0.00 | 0.00 | 91 | 1057.4 |
| 20260507092937 | 58 | 16 | 4.0 | 6.0 | 0.00 | 0.00 | 0.00 | 91 | 1057.5 |
| 20260507092433 | 58 | 17 | 2.0 | 6.0 | 0.00 | 0.00 | 0.00 | 90 | 1057.6 |
| 20260507091930 | 58 | 14 | 2.0 | 4.0 | 0.00 | 0.00 | 0.00 | 90 | 1057.5 |
| 20260507091427 | 58 | 17 | 3.0 | 4.0 | 0.00 | 0.00 | 0.00 | 90 | 1057.5 |
| 20260507090922 | 58 | 13 | 1.0 | 2.0 | 0.00 | 0.00 | 0.00 | 91 | 1057.4 |
| 20260507090419 | 58 | 5 | 2.0 | 2.0 | 0.00 | 0.00 | 0.00 | 90 | 1057.4 |
| 20260507085915 | 59 | 22 | 1.0 | 3.0 | 0.00 | 0.00 | 0.00 | 90 | 1057.4 |
| 20260507085412 | 59 | 30 | 0.0 | 1.0 | 0.00 | 0.00 | 0.00 | 90 | 1057.3 |
| 20260507084910 | 59 | 28 | 0.0 | 3.0 | 0.00 | 0.00 | 0.00 | 90 | 1057.3 |
| 20260507084406 | 59 | 16 | 1.0 | 2.0 | 0.00 | 0.00 | 0.00 | 91 | 1057.3 |
| 20260507083904 | 58 | 37 | 0.0 | 1.0 | 0.00 | 0.00 | 0.00 | 90 | 1057.3 |
| 20260507083359 | 58 | 38 | 0.0 | 1.0 | 0.00 | 0.00 | 0.00 | 90 | 1056.9 |
| 20260507082856 | 59 | 38 | 1.0 | 2.0 | 0.00 | 0.00 | 0.00 | 90 | 1057.0 |
| 20260507082351 | 59 | 41 | 0.0 | 1.0 | 0.00 | 0.00 | 0.00 | 90 | 1057.0 |
| 20260507081849 | 59 | 25 | 0.0 | 1.0 | 0.00 | 0.00 | 0.00 | 90 | 1057.2 |
| 20260507081345 | 59 | 21 | 1.0 | 3.0 | 0.00 | 0.00 | 0.00 | 90 | 1057.0 |
| 20260507080842 | 59 | 22 | 2.0 | 2.0 | 0.00 | 0.00 | 0.00 | 90 | 1057.0 |
| 20260507080338 | 59 | 24 | 2.0 | 2.0 | 0.00 | 0.00 | 0.00 | 90 | 1057.0 |
| 20260507075834 | 59 | 37 | 1.0 | 1.0 | 0.00 | 0.00 | 0.00 | 90 | 1056.7 |
| 20260507075330 | 59 | 36 | 1.0 | 3.0 | 0.00 | 0.00 | 0.00 | 89 | 1056.8 |
| 20260507074826 | 59 | 39 | 1.0 | 4.0 | 0.00 | 0.00 | 0.00 | 89 | 1057.0 |
| 20260507074324 | 59 | 25 | 1.0 | 2.0 | 0.00 | 0.00 | 0.00 | 90 | 1056.8 |
| 20260507073821 | 59 | 35 | 0.0 | 2.0 | 0.00 | 0.00 | 0.00 | 90 | 1056.6 |
| 20260507073318 | 59 | 31 | 1.0 | 2.0 | 0.00 | 0.00 | 0.00 | 90 | 1056.5 |
| 20260507072815 | 59 | 45 | 2.0 | 2.0 | 0.00 | 0.00 | 0.00 | 89 | 1056.6 |
| 20260507072312 | 59 | 77 | 1.0 | 3.0 | 0.00 | 0.00 | 0.00 | 89 | 1056.6 |
| 20260507071809 | 59 | 63 | 0.0 | 3.0 | 0.00 | 0.00 | 0.00 | 89 | 1056.8 |
| 20260507071306 | 59 | 51 | 0.0 | 1.0 | 0.00 | 0.00 | 0.00 | 89 | 1056.8 |
| 20260507070803 | 59 | 37 | 1.0 | 4.0 | 0.00 | 0.00 | 0.00 | 89 | 1056.8 |
| 20260507070300 | 59 | 17 | 1.0 | 3.0 | 0.00 | 0.00 | 0.00 | 89 | 1056.7 |
| 20260507065757 | 59 | 50 | 2.0 | 3.0 | 0.00 | 0.00 | 0.00 | 89 | 1056.5 |
| 20260507065253 | 59 | 54 | 1.0 | 3.0 | 0.00 | 0.00 | 0.00 | 89 | 1056.7 |
| 20260507064750 | 59 | 40 | 2.0 | 4.0 | 0.00 | 0.00 | 0.00 | 89 | 1056.7 |
| 20260507064249 | 59 | 33 | 0.0 | 0.0 | 0.00 | 0.00 | 0.00 | 89 | 1056.6 |
| 20260507063747 | 59 | 38 | 1.0 | 2.0 | 0.00 | 0.00 | 0.00 | 89 | 1056.5 |
| 20260507063243 | 59 | 37 | 2.0 | 2.0 | 0.00 | 0.00 | 0.00 | 88 | 1056.6 |
| 20260507062740 | 59 | 21 | 1.0 | 3.0 | 0.00 | 0.00 | 0.00 | 88 | 1056.5 |
| 20260507062237 | 59 | 24 | 2.0 | 2.0 | 0.00 | 0.00 | 0.00 | 88 | 1056.5 |
| 20260507061735 | 60 | 44 | 1.0 | 1.0 | 0.00 | 0.00 | 0.00 | 88 | 1056.5 |
| 20260507061233 | 60 | 25 | 2.0 | 3.0 | 0.00 | 0.00 | 0.00 | 89 | 1056.0 |
| 20260507060731 | 60 | 34 | 1.0 | 3.0 | 0.00 | 0.00 | 0.00 | 89 | 1056.5 |
| 20260507060227 | 60 | 42 | 3.0 | 4.0 | 0.00 | 0.00 | 0.00 | 88 | 1056.7 |
| 20260507055723 | 60 | 42 | 0.0 | 2.0 | 0.00 | 0.00 | 0.00 | 88 | 1056.7 |
| 20260507055219 | 60 | 27 | 0.0 | 4.0 | 0.00 | 0.00 | 0.00 | 89 | 1056.4 |
| 20260507054715 | 60 | 30 | 2.0 | 3.0 | 0.00 | 0.00 | 0.00 | 89 | 1056.5 |
| 20260507054213 | 60 | 43 | 1.0 | 2.0 | 0.00 | 0.00 | 0.00 | 89 | 1056.7 |
| 20260507053710 | 60 | 49 | 1.0 | 2.0 | 0.00 | 0.00 | 0.00 | 89 | 1056.6 |
| 20260507053208 | 60 | 44 | 2.0 | 4.0 | 0.00 | 0.00 | 0.00 | 89 | 1057.2 |
| 20260507052706 | 60 | 27 | 1.0 | 3.0 | 0.00 | 0.00 | 0.00 | 89 | 1056.7 |
| 20260507052202 | 60 | 25 | 3.0 | 4.0 | 0.00 | 0.00 | 0.00 | 89 | 1056.7 |
| 20260507051700 | 60 | 25 | 4.0 | 4.0 | 0.00 | 0.00 | 0.00 | 89 | 1056.4 |
| 20260507051156 | 60 | 30 | 3.0 | 4.0 | 0.00 | 0.00 | 0.00 | 89 | 1056.5 |
| 20260507050653 | 60 | 32 | 1.0 | 3.0 | 0.00 | 0.00 | 0.00 | 89 | 1056.4 |
| 20260507050150 | 60 | 34 | 3.0 | 10.0 | 0.00 | 0.00 | 0.00 | 88 | 1056.4 |
| 20260507045647 | 60 | 30 | 4.0 | 7.0 | 0.00 | 0.00 | 0.00 | 89 | 1056.3 |
| 20260507045143 | 60 | 25 | 3.0 | 6.0 | 0.00 | 0.00 | 0.00 | 89 | 1056.2 |
| 20260507044640 | 60 | 31 | 2.0 | 6.0 | 0.00 | 0.00 | 0.00 | 89 | 1056.2 |
| 20260507044137 | 60 | 17 | 1.0 | 8.0 | 0.00 | 0.00 | 0.00 | 89 | 1056.3 |
| 20260507043633 | 60 | 27 | 2.0 | 9.0 | 0.00 | 0.00 | 0.00 | 89 | 1056.2 |
| 20260507043131 | 60 | 27 | 2.0 | 3.0 | 0.00 | 0.00 | 0.00 | 90 | 1056.4 |
| 20260507042627 | 60 | 33 | 1.0 | 2.0 | 0.00 | 0.00 | 0.00 | 90 | 1056.4 |
| 20260507042121 | 60 | 13 | 3.0 | 4.0 | 0.00 | 0.00 | 0.00 | 90 | 1056.4 |
| 20260507041618 | 60 | 20 | 4.0 | 6.0 | 0.00 | 0.00 | 0.00 | 89 | 1056.5 |
| 20260507041115 | 60 | 26 | 2.0 | 3.0 | 0.00 | 0.00 | 0.00 | 90 | 1056.4 |
| 20260507040612 | 60 | 11 | 1.0 | 6.0 | 0.00 | 0.00 | 0.00 | 90 | 1056.3 |
| 20260507040109 | 60 | 26 | 4.0 | 6.0 | 0.00 | 0.00 | 0.00 | 89 | 1056.1 |
| 20260507035604 | 60 | 25 | 3.0 | 4.0 | 0.00 | 0.00 | 0.00 | 89 | 1056.0 |
| 20260507035100 | 60 | 11 | 2.0 | 6.0 | 0.00 | 0.00 | 0.00 | 89 | 1056.3 |
| 20260507034557 | 60 | 345 | 4.0 | 4.0 | 0.00 | 0.00 | 0.00 | 89 | 1056.4 |
| 20260507034055 | 60 | 29 | 2.0 | 7.0 | 0.00 | 0.00 | 0.00 | 89 | 1056.6 |
| 20260507033553 | 60 | 26 | 3.0 | 6.0 | 0.00 | 0.00 | 0.00 | 88 | 1056.5 |
| 20260507033050 | 60 | 23 | 2.0 | 3.0 | 0.00 | 0.00 | 0.00 | 88 | 1056.6 |
| 20260507032547 | 61 | 5 | 1.0 | 3.0 | 0.00 | 0.00 | 0.00 | 88 | 1056.4 |
| 20260507032038 | 61 | 28 | 2.0 | 3.0 | 0.00 | 0.00 | 0.00 | 88 | 1056.2 |
| 20260507031534 | 61 | 17 | 2.0 | 3.0 | 0.00 | 0.00 | 0.00 | 88 | 1056.1 |
| 20260507031032 | 61 | 25 | 4.0 | 6.0 | 0.00 | 0.00 | 0.00 | 88 | 1056.1 |
| 20260507030528 | 61 | 20 | 4.0 | 7.0 | 0.00 | 0.00 | 0.00 | 88 | 1056.2 |
| 20260507030027 | 61 | 19 | 3.0 | 9.0 | 0.00 | 0.00 | 0.00 | 88 | 1056.1 |
| 20260507025523 | 61 | 12 | 2.0 | 6.0 | 0.00 | 0.00 | 0.00 | 88 | 1055.9 |
| 20260507025021 | 61 | 33 | 7.0 | 10.0 | 0.00 | 0.00 | 0.00 | 88 | 1055.7 |
| 20260507024518 | 61 | 347 | 5.0 | 8.0 | 0.00 | 0.00 | 0.00 | 88 | 1055.6 |
| 20260507024015 | 61 | 354 | 3.0 | 8.0 | 0.00 | 0.00 | 0.00 | 89 | 1055.7 |
| 20260507023510 | 61 | 19 | 3.0 | 4.0 | 0.00 | 0.00 | 0.00 | 89 | 1055.6 |
| 20260507023009 | 61 | 2 | 3.0 | 6.0 | 0.00 | 0.00 | 0.00 | 89 | 1055.7 |
| 20260507022505 | 61 | 11 | 4.0 | 6.0 | 0.00 | 0.00 | 0.00 | 89 | 1055.8 |
| 20260507022000 | 61 | 30 | 3.0 | 8.0 | 0.00 | 0.00 | 0.00 | 89 | 1055.5 |
| 20260507021456 | 61 | 8 | 2.0 | 6.0 | 0.00 | 0.00 | 0.00 | 89 | 1055.4 |
| 20260507020953 | 61 | 358 | 3.0 | 7.0 | 0.00 | 0.00 | 0.00 | 89 | 1055.5 |
| 20260507020450 | 61 | 0 | 2.0 | 3.0 | 0.00 | 0.00 | 0.00 | 89 | 1055.4 |
| 20260507015947 | 61 | 34 | 2.0 | 3.0 | 0.00 | 0.00 | 0.00 | 89 | 1055.1 |
| 20260507015446 | 61 | 9 | 2.0 | 4.0 | 0.00 | 0.00 | 0.00 | 89 | 1055.4 |
| 20260507014942 | 61 | 22 | 2.0 | 3.0 | 0.00 | 0.00 | 0.00 | 89 | 1055.3 |
| 20260507014439 | 61 | 7 | 1.0 | 4.0 | 0.00 | 0.00 | 0.00 | 89 | 1055.2 |
| 20260507013935 | 61 | 39 | 0.0 | 4.0 | 0.00 | 0.00 | 0.00 | 89 | 1055.0 |
| 20260507013432 | 61 | 18 | 2.0 | 3.0 | 0.00 | 0.00 | 0.00 | 89 | 1054.9 |
| 20260507012929 | 61 | 6 | 1.0 | 3.0 | 0.00 | 0.00 | 0.00 | 89 | 1054.7 |
| 20260507012425 | 61 | 2 | 1.0 | 6.0 | 0.00 | 0.00 | 0.00 | 89 | 1054.7 |
| 20260507011917 | 61 | 11 | 2.0 | 2.0 | 0.00 | 0.00 | 0.00 | 89 | 1054.7 |
| 20260507011414 | 61 | 356 | 1.0 | 2.0 | 0.00 | 0.00 | 0.00 | 88 | 1054.6 |
| 20260507010914 | 61 | 30 | 3.0 | 4.0 | 0.00 | 0.00 | 0.00 | 88 | 1054.6 |
| 20260507010409 | 61 | 26 | 4.0 | 7.0 | 0.00 | 0.00 | 0.00 | 88 | 1054.5 |
| 20260507005907 | 61 | 314 | 4.0 | 7.0 | 0.00 | 0.00 | 0.00 | 88 | 1054.2 |
| 20260507005403 | 61 | 0 | 2.0 | 3.0 | 0.00 | 0.00 | 0.00 | 88 | 1054.2 |
| 20260507004900 | 61 | 17 | 2.0 | 6.0 | 0.00 | 0.00 | 0.00 | 88 | 1054.7 |
| 20260507004357 | 61 | 33 | 2.0 | 7.0 | 0.00 | 0.00 | 0.00 | 88 | 1054.8 |
| 20260507003854 | 61 | 21 | 2.0 | 9.0 | 0.00 | 0.00 | 0.00 | 88 | 1054.2 |
| 20260507003349 | 61 | 19 | 3.0 | 6.0 | 0.00 | 0.00 | 0.00 | 88 | 1054.2 |
| 20260507002845 | 61 | 13 | 3.0 | 6.0 | 0.00 | 0.00 | 0.00 | 88 | 1053.9 |
| 20260507002341 | 61 | 22 | 2.0 | 7.0 | 0.00 | 0.00 | 0.00 | 87 | 1053.7 |
| 20260507001838 | 61 | 5 | 2.0 | 7.0 | 0.00 | 0.00 | 0.00 | 87 | 1054.1 |
| 20260507001335 | 61 | 339 | 5.0 | 9.0 | 0.00 | 0.00 | 0.00 | 87 | 1053.7 |
| 20260507000832 | 61 | 27 | 6.0 | 8.0 | 0.00 | 0.00 | 0.00 | 87 | 1053.6 |
| 20260507000328 | 61 | 11 | 1.0 | 7.0 | 0.00 | 0.00 | 0.00 | 88 | 1054.2 |
| 20260506235824 | 61 | 350 | 4.0 | 7.0 | 0.00 | 0.00 | 0.00 | 88 | 1053.9 |
| 20260506235320 | 61 | 16 | 4.0 | 11.0 | 0.00 | 0.00 | 0.00 | 88 | 1053.7 |
| 20260506234817 | 61 | 25 | 3.0 | 9.0 | 0.00 | 0.00 | 0.00 | 88 | 1053.7 |
| 20260506234315 | 61 | 8 | 4.0 | 6.0 | 0.00 | 0.00 | 0.00 | 88 | 1053.6 |
| 20260506233812 | 61 | 9 | 2.0 | 10.0 | 0.00 | 0.00 | 0.00 | 88 | 1053.7 |
| 20260506233308 | 61 | 355 | 2.0 | 13.0 | 0.00 | 0.00 | 0.00 | 87 | 1053.9 |
| 20260506232805 | 61 | 32 | 3.0 | 9.0 | 0.00 | 0.00 | 0.00 | 87 | 1053.9 |